sat.trackr.live / text

‹ back to catalog

ZHUHAI-1 03B

NORAD 44536 · 2019-060C

PAYLOAD ACTIVE UNKNOWN

§ Identity

Operator
Country
PRC
Launch date
2019-09-19
Launch site
JSC
Launch vehicle
Mass (kg)
RCS (m²)

External: N2YO · Heavens-Above · Gunter

§ Orbital elements

Epoch: 2026-05-25T04:28:38.314848Z

Period
92.74 min
Inclination
97.5506°
Eccentricity
0.0008944
Mean motion
15.52649514 rev/d
Perigee alt
402.9 km
Apogee alt
415.1 km
Semi-major
6,787.1 km
B*
4.5963e-4
RAAN
301.7391°
Arg perigee
47.9964°
Mean anomaly
312.2048°
Rev number
37,275

§ Raw data

ZHUHAI-1 03B1 44536U 19060C   26145.18655457  .00028304  00000+0  45963-3 0  99932 44536  97.5506 301.7391 0008944  47.9964 312.2048 15.52649514372750

JSON: /api/v1/satellites/44536 · /tle

For live sub-satellite position, see the globe view (requires WebGL).

§ Visibility from observer

Set your observer location to see the next 7 days of passes ≥ 10°. The values pass through the URL so the page stays shareable.

No JS? Fill the form by hand. The geolocation button needs JavaScript.

§ Radio — SatNOGS DB

ModeDescriptionDownlinkUplink
FM S-band telemetry 2.249 GHz

1 transmitter · refreshed weekly from db.satnogs.org